QPF
0.01 0.02 0.01 0.01 0.00 0.03 0.07 0.07 0.07 0.02 0.01 0.31 0.54 0.19 0.00 0.00 0.00 0.00 0.00 0.03 0.12 0.03 0.01 0.02 0.03 0.01 0.00 0.00 0.00 0.00 0.00 0.00 0.00 0.00 0.00 0.00 0.00 0.00 0.00 0.00 0.00 0.00 0.00 0.00
0.00 0.01 0.02 0.01 0.01 0.04 0.07 0.06 0.03 0.06 0.04 0.18 0.27 0.06 0.00 0.00 0.00 0.00 0.00 0.01 0.07 0.14 0.04 0.02 0.04 0.02 0.00 0.00 0.00 0.00 0.00 0.04 0.08 0.02 0.02 0.03 0.00 0.00 0.00 0.00 0.00 0.00 0.00 0.00
0.00 0.01 0.01 0.02 0.02 0.03 0.07 0.16 0.16 0.16 0.40 0.10 0.05 0.02 0.00 0.00 0.00 0.00 0.00 0.00 0.00 0.06 0.24 0.12 0.06 0.04 0.00 0.00 0.00 0.00 0.00 0.03 0.05 0.01 0.02 0.01 0.00 0.00 0.00 0.00 0.00 0.00 0.00 0.00
0.01 0.01 0.01 0.02 0.03 0.02 0.14 0.36 0.36 0.09 0.25 0.31 0.05 0.00 0.00 0.00 0.00 0.00 0.00 0.00 0.00 0.01 0.09 0.19 0.18 0.10 0.01 0.01 0.00 0.00 0.01 0.07 0.06 0.00 0.00 0.00 0.00 0.00 0.00 0.00 0.00 0.00 0.00 0.00
0.01 0.01 0.02 0.05 0.04 0.02 0.16 0.56 0.42 0.16 0.02 0.04 0.08 0.03 0.00 0.00 0.00 0.00 0.00 0.00 0.00 0.00 0.03 0.10 0.17 0.19 0.23 0.07 0.01 0.02 0.02 0.02 0.01 0.00 0.00 0.00 0.00 0.00 0.00 0.00 0.00 0.00 0.00 0.00
0.01 0.01 0.05 0.03 0.03 0.03 0.08 0.25 0.21 0.06 0.04 0.02 0.05 0.04 0.00 0.00 0.00 0.00 0.00 0.00 0.00 0.00 0.00 0.00 0.04 0.10 0.32 0.58 0.35 0.11 0.03 0.03 0.01 0.00 0.00 0.00 0.02 0.00 0.00 0.00 0.00 0.00 0.00 0.00
0.01 0.01 0.06 0.05 0.09 0.14 0.14 0.19 0.14 0.12 0.14 0.04 0.02 0.00 0.00 0.00 0.00 0.00 0.00 0.00 0.00 0.00 0.00 0.00 0.01 0.03 0.06 0.18 0.54 0.54 0.26 0.07 0.03 0.01 0.01 0.09 0.04 0.00 0.00 0.00 0.00 0.00 0.00 0.00
0.00 0.01 0.05 0.08 0.17 0.39 0.42 0.32 0.21 0.13 0.09 0.03 0.00 0.00 0.00 0.00 0.00 0.00 0.00 0.00 0.00 0.00 0.01 0.02 0.07 0.08 0.10 0.07 0.15 0.31 0.57 0.32 0.15 0.08 0.03 0.06 0.01 0.00 0.00 0.00 0.00 0.00 0.00 0.00
0.00 0.01 0.03 0.08 0.12 0.19 0.26 0.35 0.26 0.12 0.06 0.03 0.00 0.00 0.00 0.00 0.00 0.00 0.00 0.00 0.00 0.02 0.04 0.07 0.12 0.08 0.10 0.19 0.22 0.20 0.23 0.49 0.35 0.11 0.10 0.12 0.01 0.00 0.00 0.00 0.00 0.00 0.00 0.00
0.00 0.00 0.01 0.05 0.09 0.12 0.07 0.06 0.05 0.04 0.04 0.03 0.01 0.01 0.00 0.00 0.00 0.00 0.00 0.00 0.00 0.02 0.04 0.08 0.06 0.07 0.06 0.12 0.20 0.33 0.34 0.26 0.50 0.30 0.08 0.06 0.00 0.00 0.00 0.00 0.00 0.00 0.00 0.00
0.00 0.00 0.00 0.02 0.08 0.10 0.07 0.07 0.06 0.06 0.07 0.06 0.02 0.00 0.00 0.00 0.00 0.01 0.01 0.01 0.02 0.04 0.05 0.10 0.08 0.06 0.04 0.12 0.12 0.18 0.39 0.34 0.20 0.29 0.24 0.06 0.00 0.00 0.00 0.00 0.00 0.00 0.00 0.00
0.00 0.00 0.00 0.01 0.03 0.05 0.08 0.09 0.10 0.11 0.13 0.15 0.05 0.00 0.00 0.00 0.00 0.00 0.00 0.01 0.01 0.05 0.07 0.05 0.04 0.07 0.09 0.05 0.09 0.09 0.15 0.32 0.29 0.12 0.06 0.01 0.00 0.00 0.00 0.00 0.00 0.00 0.00 0.00
0.00 0.00 0.01 0.03 0.00 0.01 0.06 0.02 0.02 0.02 0.04 0.04 0.02 0.01 0.00 0.00 0.00 0.00 0.00 0.00 0.01 0.01 0.04 0.09 0.06 0.04 0.09 0.16 0.12 0.03 0.06 0.13 0.26 0.22 0.05 0.00 0.00 0.00 0.00 0.00 0.00 0.00 0.00 0.00
0.00 0.00 0.01 0.02 0.01 0.02 0.02 0.00 0.00 0.00 0.00 0.00 0.00 0.00 0.00 0.00 0.00 0.00 0.00 0.00 0.00 0.00 0.02 0.04 0.13 0.09 0.03 0.03 0.08 0.08 0.04 0.04 0.12 0.16 0.05 0.00 0.00 0.00 0.00 0.00 0.00 0.00 0.00 0.00
0.01 0.01 0.01 0.01 0.01 0.04 0.01 0.00 0.00 0.00 0.00 0.01 0.01 0.00 0.00 0.00 0.00 0.00 0.00 0.00 0.00 0.00 0.01 0.04 0.04 0.05 0.05 0.06 0.07 0.05 0.04 0.08 0.04 0.02 0.00 0.00 0.00 0.00 0.00 0.00 0.00 0.00 0.00 0.00
0.01 0.01 0.04 0.09 0.02 0.00 0.00 0.00 0.00 0.00 0.00 0.00 0.00 0.00 0.00 0.00 0.00 0.00 0.00 0.00 0.00 0.00 0.01 0.01 0.02 0.04 0.02 0.05 0.08 0.06 0.02 0.01 0.01 0.00 0.00 0.00 0.00 0.00 0.00 0.00 0.00 0.00 0.00 0.00
0.00 0.00 0.00 0.04 0.04 0.00 0.00 0.00 0.00 0.00 0.00 0.00 0.00 0.00 0.00 0.00 0.00 0.01 0.02 0.04 0.04 0.02 0.03 0.04 0.02 0.04 0.07 0.05 0.01 0.03 0.05 0.04 0.02 0.02 0.04 0.03 0.01 0.00 0.00 0.00 0.00 0.00 0.00 0.00
0.00 0.00 0.00 0.00 0.01 0.02 0.02 0.02 0.03 0.04 0.07 0.03 0.02 0.01 0.00 0.00 0.00 0.02 0.06 0.16 0.21 0.15 0.08 0.07 0.05 0.02 0.03 0.07 0.02 0.00 0.06 0.09 0.10 0.09 0.05 0.06 0.05 0.03 0.02 0.01 0.01 0.00 0.00 0.00
0.00 0.00 0.00 0.00 0.00 0.00 0.00 0.01 0.06 0.07 0.11 0.07 0.03 0.01 0.01 0.00 0.01 0.04 0.08 0.16 0.18 0.17 0.15 0.13 0.10 0.07 0.03 0.01 0.00 0.00 0.01 0.10 0.18 0.14 0.13 0.10 0.07 0.06 0.03 0.01 0.00 0.00 0.00 0.00
0.00 0.00 0.00 0.00 0.00 0.00 0.00 0.00 0.00 0.01 0.03 0.02 0.02 0.00 0.00 0.01 0.02 0.05 0.06 0.08 0.13 0.11 0.08 0.11 0.07 0.03 0.00 0.00 0.00 0.00 0.00 0.00 0.06 0.16 0.18 0.08 0.01 0.00 0.00 0.00 0.00 0.00 0.00 0.00
0.00 0.00 0.01 0.00 0.00 0.00 0.00 0.00 0.00 0.00 0.00 0.00 0.00 0.00 0.00 0.00 0.01 0.03 0.02 0.03 0.04 0.05 0.04 0.07 0.08 0.04 0.00 0.00 0.00 0.00 0.00 0.00 0.00 0.01 0.03 0.01 0.00 0.00 0.00 0.00 0.00 0.00 0.00 0.00
0.00 0.00 0.00 0.00 0.00 0.00 0.01 0.00 0.00 0.00 0.00 0.00 0.00 0.00 0.00 0.00 0.00 0.00 0.00 0.02 0.04 0.02 0.01 0.05 0.05 0.02 0.00 0.00 0.00 0.00 0.00 0.00 0.00 0.00 0.00 0.00 0.00 0.00 0.00 0.00 0.00 0.00 0.00 0.00
0.00 0.00 0.00 0.00 0.00 0.00 0.01 0.03 0.01 0.01 0.00 0.00 0.00 0.00 0.00 0.00 0.00 0.00 0.00 0.01 0.01 0.00 0.02 0.04 0.02 0.00 0.01 0.00 0.00 0.00 0.00 0.00 0.00 0.00 0.00 0.00 0.00 0.00 0.00 0.00 0.00 0.00 0.00 0.00
0.00 0.01 0.00 0.00 0.00 0.00 0.00 0.00 0.01 0.02 0.00 0.00 0.00 0.00 0.00 0.00 0.00 0.00 0.00 0.00 0.00 0.01 0.02 0.06 0.00 0.00 0.01 0.01 0.00 0.00 0.00 0.00 0.00 0.00 0.00 0.00 0.00 0.00 0.00 0.00 0.00 0.00 0.00 0.00
0.00 0.00 0.00 0.00 0.00 0.00 0.00 0.00 0.00 0.00 0.00 0.00 0.00 0.00 0.00 0.00 0.00 0.00 0.00 0.00 0.00 0.00 0.02 0.01 0.00 0.00 0.00 0.01 0.00 0.00 0.00 0.00 0.00 0.00 0.00 0.00 0.00 0.00 0.00 0.00 0.00 0.00 0.00 0.00
0.00 0.00 0.00 0.00 0.05 0.01 0.00 0.00 0.00 0.00 0.01 0.00 0.00 0.00 0.00 0.00 0.00 0.00 0.00 0.00 0.00 0.00 0.00 0.00 0.00 0.00 0.00 0.00 0.00 0.00 0.00 0.00 0.00 0.00 0.00 0.00 0.00 0.00 0.00 0.00 0.00 0.00 0.00 0.00
0.00 0.00 0.00 0.02 0.09 0.01 0.00 0.01 0.01 0.01 0.01 0.00 0.01 0.01 0.00 0.00 0.00 0.00 0.01 0.01 0.00 0.00 0.00 0.00 0.00 0.00 0.00 0.01 0.01 0.01 0.00 0.00 0.00 0.00 0.01 0.01 0.00 0.00 0.00 0.00 0.00 0.00 0.00 0.00
MSLP
1006.15 1005.46 1004.71 1004.16 1003.64 1003.42 1003.25 1002.88 1002.26 1002.14 1003.35 1004.28 1003.86 1003.78 1001.40 1003.16 1002.47 1002.85 1002.34 1001.76 1001.50 1000.91 999.03 997.28 996.78 995.91 995.08 994.62 996.26 997.61 997.07 998.59 998.08 996.95 996.55 996.68 997.13 997.32 998.32 998.83 999.79 1000.15 1000.90 996.57
1005.00 1004.34 1003.70 1003.16 1002.82 1002.62 1002.39 1001.73 1001.43 1001.42 1002.08 1001.95 1001.32 1001.01 1001.54 1001.69 1001.78 1001.04 1001.61 1001.61 1001.56 1000.91 999.94 998.81 996.40 994.93 994.64 994.40 995.54 995.23 996.71 997.37 997.48 997.89 997.26 996.88 996.55 996.72 997.36 997.99 999.09 998.72 1000.30 994.84
1003.91 1003.11 1002.46 1001.72 1001.39 1001.13 1001.54 1000.72 1000.19 1000.11 999.43 998.31 999.59 999.86 999.38 1000.09 1000.40 1000.65 1000.35 1000.29 1000.88 1000.52 999.88 999.13 997.41 995.45 994.28 993.64 993.92 994.02 994.51 995.27 995.33 994.28 992.45 994.13 995.96 995.46 995.71 997.05 998.59 996.83 996.81 997.22
1002.74 1001.96 1001.13 1000.12 999.15 998.74 998.98 998.32 996.97 996.80 997.01 996.63 996.72 997.91 998.43 998.96 999.66 999.35 1000.18 1000.80 1000.53 999.76 999.67 999.19 998.64 997.98 996.06 994.17 993.28 994.00 994.60 994.12 994.86 993.86 994.17 993.80 993.60 994.14 994.68 995.40 993.71 996.56 993.33 996.62
1001.62 1000.69 999.72 998.77 998.15 997.69 997.25 995.81 995.29 994.89 994.23 995.04 996.14 996.11 995.80 996.51 997.07 998.32 998.88 999.14 998.66 998.68 998.79 999.17 998.49 997.75 997.82 995.66 993.48 993.49 993.65 993.28 994.40 993.70 993.45 993.52 993.17 993.04 993.82 993.55 993.56 994.37 995.29 994.90
1000.53 999.48 998.53 997.62 996.92 996.17 994.27 992.52 991.68 992.01 991.51 992.97 993.87 992.23 992.86 994.16 997.05 997.25 996.87 997.35 998.02 998.81 997.72 997.87 998.82 998.66 999.37 998.41 996.71 994.76 993.29 993.29 993.36 992.71 992.64 992.60 992.36 992.43 991.41 991.36 992.51 991.67 993.57 990.37
999.54 998.46 997.43 996.27 995.38 994.56 992.62 989.97 988.41 988.71 989.10 990.53 988.88 991.25 992.97 994.05 994.76 995.11 995.75 997.06 998.11 994.94 996.83 997.29 997.10 998.06 997.27 997.85 996.35 995.95 994.62 992.88 992.58 991.64 992.00 990.50 989.64 989.78 990.13 990.30 989.52 989.91 990.15 991.70
998.67 997.53 996.28 995.03 993.94 992.69 991.20 989.33 988.32 987.76 988.59 989.34 990.20 990.56 991.87 993.50 994.50 995.01 995.42 995.58 994.92 996.27 997.39 997.70 996.82 995.16 995.79 994.08 994.11 993.28 994.63 994.10 991.73 990.39 989.47 989.38 989.20 988.98 988.91 988.63 987.72 988.63 989.13 990.40
997.78 996.67 995.48 994.30 993.14 992.05 990.81 989.82 988.62 988.04 988.23 988.37 988.88 989.96 991.27 992.52 993.45 994.79 994.33 995.02 995.18 996.46 997.16 997.54 996.73 995.97 995.64 993.48 991.58 990.61 991.58 991.97 992.31 988.72 988.14 987.96 987.01 985.85 986.86 988.94 989.00 988.26 988.03 989.50
996.99 995.90 994.86 993.77 992.75 991.99 991.09 990.16 989.12 988.52 988.83 988.65 988.93 989.18 989.95 991.70 993.03 993.80 994.74 994.90 995.35 995.83 996.61 997.33 997.03 995.27 995.29 994.99 993.52 992.94 990.67 989.38 989.25 988.07 987.19 987.57 985.96 985.62 987.43 988.99 987.07 986.09 987.20 987.56
996.22 995.00 994.00 993.10 992.26 991.75 991.31 990.77 990.06 989.82 989.78 989.88 989.30 989.64 990.16 991.36 992.33 993.67 994.77 995.65 995.43 995.99 996.22 996.46 996.22 995.20 993.90 993.28 991.83 990.19 989.23 988.66 987.94 988.26 986.76 986.09 985.21 985.92 985.82 984.98 985.54 984.74 986.05 986.90
995.54 994.31 993.10 991.93 991.26 991.06 991.30 991.07 990.66 990.37 990.68 990.87 990.61 990.45 990.36 990.92 991.42 992.59 993.99 994.28 994.44 994.52 995.47 995.21 994.53 993.88 992.96 991.17 989.33 990.17 988.97 988.35 988.11 987.61 986.31 985.33 984.23 983.64 984.51 984.86 984.93 984.74 985.34 986.25
994.99 993.73 992.69 991.61 990.59 990.60 991.13 991.18 991.02 991.13 991.37 991.54 991.39 991.40 991.45 991.26 991.39 991.59 992.95 994.21 993.89 994.25 994.18 994.37 994.15 993.30 991.44 991.43 989.07 987.78 987.89 988.82 988.53 988.89 986.15 985.55 983.56 984.41 984.89 984.81 984.79 984.79 985.26 986.10
994.58 993.34 992.50 991.51 990.95 990.64 991.00 991.29 991.21 991.45 991.87 992.12 992.32 992.05 992.17 992.09 991.95 992.23 992.61 993.21 993.65 993.93 994.15 994.45 993.96 992.76 991.80 990.75 990.37 989.88 988.73 988.02 987.53 988.23 987.06 985.40 984.60 984.72 985.26 985.61 985.02 985.58 986.40 986.58
994.28 993.14 992.34 991.25 990.41 990.47 991.08 991.38 991.44 991.27 991.97 992.30 992.29 992.27 992.27 992.31 992.29 992.53 992.96 993.52 993.93 994.17 994.18 993.51 993.20 992.55 992.65 991.67 990.73 989.01 988.45 988.09 987.15 985.71 985.47 985.16 985.10 985.58 985.71 986.06 986.38 986.35 986.89 988.17
994.06 993.05 992.29 991.64 990.68 990.78 991.38 991.81 991.82 991.46 991.39 992.28 992.54 992.22 992.17 992.51 992.70 992.88 993.11 993.39 993.77 993.83 993.59 993.01 992.04 990.98 990.97 990.63 989.72 988.39 987.76 987.39 986.87 985.78 985.51 985.67 985.35 986.07 986.13 986.21 987.22 987.48 987.99 988.89
993.62 992.86 992.32 992.10 991.54 991.51 991.88 991.95 991.82 991.58 991.53 992.31 992.54 992.13 991.96 992.21 992.50 992.42 992.42 992.54 992.50 992.63 992.49 991.59 991.09 990.88 990.36 989.16 988.33 987.98 986.50 986.46 986.24 986.15 985.96 986.76 985.93 986.88 987.47 987.55 988.52 988.96 990.25 990.14
993.00 992.21 991.93 992.02 991.83 992.03 991.98 991.88 991.68 991.52 991.89 992.14 992.13 992.03 992.12 991.85 991.81 991.86 991.73 991.52 991.40 991.06 990.59 990.12 989.71 989.66 988.80 987.64 986.58 986.39 986.19 985.88 986.94 987.00 986.46 986.66 987.17 987.79 988.19 989.37 990.10 991.15 991.70 992.49
992.29 991.41 991.52 991.85 991.83 991.86 991.72 991.66 991.74 991.76 992.15 991.76 991.75 991.63 991.48 991.40 991.41 991.30 991.17 990.93 990.27 989.92 989.27 988.81 988.56 987.92 986.87 985.38 984.88 985.05 985.49 985.73 986.07 987.94 988.51 988.70 988.64 988.85 989.64 990.68 991.56 992.07 992.98 993.67
991.81 991.77 991.86 992.03 991.60 991.06 991.53 991.83 991.87 991.81 991.56 991.55 991.32 991.21 991.21 991.25 991.04 990.92 990.95 990.40 990.02 989.47 989.24 988.85 988.14 986.90 985.05 984.05 984.13 984.14 984.84 985.50 986.09 987.40 987.47 988.67 989.16 990.04 990.73 991.32 992.12 992.51 993.41 994.60
992.83 992.75 992.59 992.36 991.68 991.61 991.69 991.77 991.83 991.56 991.49 991.15 991.00 990.96 990.89 990.82 990.72 990.38 990.40 990.13 989.67 989.31 989.07 988.51 987.66 986.57 985.35 984.13 983.77 984.20 984.32 984.87 985.22 984.47 985.19 987.16 989.57 990.23 990.59 991.69 992.66 993.56 994.62 995.81
993.72 993.61 993.17 992.68 992.11 991.98 992.17 991.82 991.51 991.30 990.92 990.96 990.96 990.84 990.61 990.32 990.19 990.31 990.15 989.76 989.50 989.03 988.92 988.45 987.56 986.54 986.01 984.69 984.34 984.47 984.58 984.68 985.97 986.36 986.94 988.64 989.54 990.79 991.89 993.07 994.06 995.21 996.09 997.17
993.02 993.15 993.15 992.88 992.44 992.43 992.13 991.77 991.24 991.03 990.79 990.88 990.86 991.01 990.71 990.45 990.08 990.00 989.79 989.49 989.26 989.02 988.84 988.28 987.75 987.04 986.64 985.59 984.82 985.47 985.15 986.21 987.19 987.81 988.74 989.84 990.56 992.11 992.90 994.62 995.97 996.57 997.45 998.40
993.01 992.93 993.21 993.00 992.64 992.45 992.17 991.96 991.55 990.98 990.68 990.67 990.78 990.95 990.78 990.15 990.04 989.61 989.63 989.26 989.07 988.93 988.72 988.29 988.08 987.88 987.76 987.21 986.82 986.56 987.52 988.23 988.94 990.06 990.99 991.68 992.58 993.94 995.06 995.75 996.87 997.55 998.69 999.77
993.01 992.97 993.24 992.96 992.85 992.32 991.82 991.49 991.16 990.64 990.47 990.75 991.02 990.83 990.57 990.11 989.88 989.51 989.49 989.35 989.07 988.70 988.62 988.71 988.85 988.90 988.79 989.07 988.87 989.01 989.40 989.84 990.75 991.70 992.74 993.83 994.66 995.47 996.78 997.46 997.88 998.66 999.55 1000.17
992.89 993.01 993.23 993.09 992.75 992.48 992.08 991.63 991.20 990.72 990.59 990.62 990.66 990.68 990.44 990.11 989.77 989.59 989.37 989.07 989.10 989.16 989.16 989.40 989.56 989.90 990.08 990.49 990.71 990.92 991.29 991.66 992.28 993.15 993.97 995.03 996.08 996.90 997.73 998.64 999.10 999.74 1000.19 1000.90
993.01 993.36 993.19 993.34 992.78 992.75 992.51 992.21 991.84 990.98 991.06 991.20 990.86 990.84 990.36 990.07 989.85 989.67 989.66 989.65 989.65 989.72 990.03 990.29 990.41 990.68 991.49 991.75 991.88 992.46 992.91 993.40 994.01 994.75 995.58 996.42 997.19 997.71 998.39 999.21 1000.20 1000.72 1001.29 1001.69
Thickness
5350 5355 5365 5374 5381 5384 5386 5391 5402 5406 5395 5385 5385 5382 5427 5426 5434 5431 5436 5451 5460 5471 5522 5550 5558 5563 5593 5622 5613 5593 5616 5594 5592 5612 5629 5632 5628 5626 5625 5605 5607 5605 5603 5647
5348 5351 5358 5368 5374 5377 5379 5386 5391 5393 5388 5390 5399 5410 5409 5417 5421 5436 5431 5429 5448 5472 5482 5508 5545 5564 5591 5600 5593 5600 5600 5582 5577 5583 5601 5607 5608 5623 5627 5623 5608 5616 5595 5652
5345 5349 5355 5366 5373 5376 5371 5378 5386 5385 5387 5412 5406 5402 5414 5406 5422 5424 5435 5442 5442 5454 5462 5478 5506 5550 5580 5595 5594 5609 5605 5592 5588 5603 5637 5634 5602 5620 5629 5619 5595 5624 5625 5630
5344 5348 5357 5368 5379 5382 5378 5383 5398 5403 5396 5400 5408 5406 5405 5396 5394 5415 5418 5412 5419 5441 5446 5468 5467 5494 5545 5575 5590 5587 5577 5581 5585 5610 5620 5622 5625 5621 5618 5612 5641 5603 5655 5623
5344 5351 5361 5370 5376 5380 5378 5386 5388 5392 5409 5405 5389 5394 5396 5398 5404 5400 5402 5411 5433 5439 5432 5454 5472 5485 5485 5535 5582 5575 5577 5573 5573 5583 5604 5606 5604 5618 5611 5621 5629 5623 5616 5624
5345 5354 5362 5370 5375 5379 5390 5404 5406 5403 5417 5398 5393 5410 5414 5411 5396 5397 5419 5417 5418 5410 5436 5461 5458 5462 5465 5482 5502 5543 5567 5571 5567 5573 5599 5596 5577 5598 5622 5629 5625 5639 5610 5668
5345 5353 5361 5369 5376 5380 5389 5411 5418 5408 5410 5401 5421 5418 5405 5404 5401 5403 5415 5413 5400 5451 5442 5434 5450 5441 5461 5465 5481 5492 5513 5559 5570 5577 5586 5564 5589 5633 5632 5630 5646 5646 5647 5639
5343 5351 5360 5369 5377 5382 5390 5403 5410 5410 5409 5406 5406 5413 5403 5403 5400 5398 5407 5412 5433 5421 5411 5402 5407 5438 5441 5475 5484 5511 5507 5505 5560 5569 5577 5571 5583 5609 5618 5623 5643 5651 5648 5638
5341 5348 5356 5364 5372 5378 5385 5389 5395 5404 5400 5405 5417 5412 5408 5397 5395 5391 5404 5412 5415 5407 5388 5402 5404 5417 5450 5475 5505 5537 5532 5522 5517 5567 5576 5573 5606 5644 5641 5618 5595 5639 5648 5633
5338 5344 5352 5360 5366 5371 5376 5378 5389 5398 5400 5412 5412 5410 5409 5406 5396 5382 5374 5390 5399 5402 5385 5382 5392 5412 5442 5437 5463 5511 5521 5535 5539 5555 5573 5563 5611 5628 5613 5571 5620 5659 5645 5644
5335 5343 5350 5357 5363 5366 5370 5373 5377 5384 5385 5393 5405 5404 5397 5390 5394 5386 5369 5378 5373 5371 5386 5390 5394 5413 5427 5441 5474 5506 5522 5537 5546 5534 5551 5567 5608 5605 5600 5635 5641 5651 5644 5641
5332 5340 5349 5360 5365 5366 5365 5366 5371 5372 5370 5374 5384 5389 5396 5395 5395 5381 5375 5379 5379 5386 5370 5375 5375 5413 5426 5461 5472 5494 5501 5515 5525 5553 5570 5586 5610 5623 5627 5629 5638 5643 5640 5634
5330 5339 5346 5355 5365 5365 5362 5361 5363 5362 5360 5365 5370 5374 5381 5386 5389 5391 5374 5367 5383 5378 5388 5389 5386 5388 5433 5428 5465 5495 5513 5515 5509 5512 5559 5577 5603 5596 5606 5619 5625 5628 5628 5624
5329 5337 5343 5352 5357 5360 5358 5355 5357 5354 5352 5353 5360 5365 5365 5372 5377 5380 5380 5378 5376 5377 5378 5374 5374 5399 5413 5436 5457 5456 5481 5503 5521 5499 5526 5555 5580 5587 5586 5590 5605 5610 5609 5611
5328 5335 5341 5351 5359 5359 5352 5349 5349 5352 5346 5353 5360 5360 5363 5366 5370 5372 5369 5365 5364 5365 5369 5376 5381 5387 5397 5407 5417 5448 5475 5488 5509 5544 5541 5555 5563 5564 5571 5575 5581 5592 5593 5588
5326 5333 5339 5345 5353 5352 5347 5338 5344 5346 5350 5344 5357 5358 5363 5361 5362 5361 5360 5358 5357 5358 5361 5371 5380 5397 5397 5412 5418 5452 5473 5486 5500 5520 5533 5538 5548 5551 5561 5563 5562 5569 5571 5567
5327 5332 5337 5339 5343 5345 5341 5341 5344 5345 5348 5346 5344 5342 5359 5358 5358 5359 5358 5355 5356 5357 5359 5371 5387 5384 5398 5411 5427 5446 5480 5490 5500 5511 5521 5521 5539 5532 5532 5536 5534 5538 5533 5539
5330 5336 5338 5338 5339 5340 5341 5342 5344 5347 5347 5347 5351 5350 5354 5360 5359 5360 5359 5358 5354 5357 5367 5374 5383 5389 5398 5416 5442 5450 5469 5479 5483 5498 5509 5511 5516 5513 5513 5511 5510 5505 5505 5505
5333 5340 5339 5337 5337 5335 5341 5343 5343 5343 5343 5351 5349 5351 5354 5359 5356 5358 5357 5356 5365 5363 5371 5378 5382 5390 5405 5434 5453 5457 5463 5471 5483 5477 5480 5486 5486 5483 5483 5484 5483 5482 5481 5484
5334 5334 5331 5329 5336 5345 5342 5339 5341 5343 5348 5350 5357 5356 5354 5355 5355 5355 5353 5355 5359 5366 5366 5366 5379 5388 5423 5441 5449 5458 5459 5464 5467 5456 5462 5460 5461 5464 5469 5474 5473 5474 5473 5470
5319 5316 5322 5327 5335 5335 5332 5341 5342 5340 5347 5345 5348 5353 5351 5351 5355 5359 5353 5353 5360 5365 5370 5377 5386 5398 5414 5435 5443 5448 5453 5460 5468 5482 5480 5476 5464 5466 5465 5461 5460 5459 5456 5448
5311 5314 5319 5322 5330 5324 5333 5332 5339 5346 5358 5339 5341 5344 5350 5352 5352 5346 5351 5360 5359 5370 5363 5372 5382 5395 5402 5421 5430 5439 5452 5460 5455 5459 5463 5455 5455 5453 5446 5441 5438 5432 5426 5420
5318 5317 5318 5314 5322 5316 5332 5339 5354 5339 5342 5338 5343 5330 5342 5347 5350 5347 5353 5358 5350 5361 5356 5372 5374 5389 5393 5409 5425 5430 5439 5437 5436 5435 5435 5436 5436 5426 5422 5412 5407 5407 5404 5400
5318 5319 5304 5307 5305 5327 5333 5331 5330 5339 5341 5338 5329 5336 5344 5345 5347 5350 5350 5359 5360 5355 5362 5377 5370 5375 5380 5391 5402 5411 5407 5410 5411 5409 5405 5403 5401 5397 5396 5396 5391 5390 5386 5379
5313 5317 5299 5314 5314 5318 5322 5324 5331 5338 5337 5337 5337 5333 5337 5340 5341 5352 5354 5346 5351 5369 5371 5362 5362 5362 5368 5369 5377 5383 5386 5388 5388 5386 5381 5378 5376 5375 5369 5370 5372 5370 5367 5365
5313 5318 5311 5308 5309 5306 5315 5317 5323 5333 5334 5333 5326 5336 5342 5347 5351 5358 5351 5370 5354 5363 5360 5351 5354 5354 5356 5355 5357 5360 5363 5368 5369 5366 5364 5359 5356 5354 5351 5346 5347 5346 5347 5345
5324 5308 5313 5308 5320 5320 5318 5319 5319 5327 5323 5318 5328 5332 5351 5339 5343 5360 5346 5349 5354 5351 5345 5341 5345 5347 5341 5342 5345 5343 5346 5347 5348 5347 5344 5339 5337 5339 5337 5334 5327 5327 5328 5331